Reflectivity
-3 -9 -20 -20 -20 -20 -20 -20 -20 -20 -20 -20 -20 -20 -20 -20 -20 -20 -20 -20 -20 -20 -20 -20 -20 -20 -20 -20 -20 -20 -20 -20 -20 -20 -20 -20 -20 -20
-12 -2 7 -20 -20 -20 -20 -20 -18 -20 -20 -20 -20 -20 -20 -20 -20 -20 -20 -20 -20 -20 -20 -20 -20 -20 -20 -20 -20 -20 -20 -20 -20 -20 -20 -20 -20 -20
-20 -20 -4 13 11 -19 -20 -20 13 -1 -20 1 -20 -9 -13 -20 -20 -20 -20 -20 -20 -20 -20 -20 -20 -20 -20 -20 -20 -20 -20 -20 -20 -20 -20 -20 -20 -20
-20 -20 -20 -19 18 13 12 19 6 -16 -20 11 11 -13 11 1 -20 -20 -20 -20 -20 -20 -20 -20 -20 -20 -20 -20 -20 -20 -20 -20 -20 -20 -20 -20 -20 -20
23 -19 -20 -20 -20 -20 -11 -1 6 21 30 -3 -2 12 12 15 8 -20 -20 -20 -20 -20 -20 -20 -20 -20 -20 -20 -20 -20 -20 -20 -20 -20 -20 -20 -20 -20
-20 -19 -20 -6 -20 -20 -20 -20 -11 20 34 21 16 15 18 12 13 5 -20 -20 -20 -20 -20 -20 -20 -20 -20 -20 -20 -20 -20 -20 -20 -20 -20 -20 -20 -20
-20 -2 -0 13 22 20 -10 -20 -20 -18 12 -5 12 10 19 5 17 14 -7 -20 -20 -20 -20 -20 -20 -20 -20 -20 -20 -20 -20 -20 -20 -20 -20 -20 -20 -20
-20 11 15 28 22 20 23 12 -5 -13 -18 22 -20 14 4 -17 20 -3 2 -7 -5 4 -6 -20 -20 -20 -20 -20 -20 -20 -20 -20 -20 -20 -20 -20 -20 -20
-8 -18 -20 19 10 -11 -1 -7 -20 14 8 -15 17 -16 12 28 27 26 -10 -20 -19 6 -2 -20 -20 -20 -20 -20 -20 -20 -20 -20 -20 -20 -20 -20 -20 -20
24 25 24 24 24 10 -2 -20 -20 -16 -10 -13 7 12 10 -20 -11 32 29 -2 -20 5 6 9 -11 -20 -20 -20 -20 -20 -20 -20 -20 -20 -20 -20 -20 -20
-5 2 -3 27 28 30 33 -15 -19 -5 24 -19 21 11 8 19 10 0 21 33 3 -8 17 12 1 -20 -20 -20 -0 -12 -20 -20 -20 -20 -20 -20 -20 -20
-8 10 19 8 24 32 34 11 -20 -20 -19 -20 -15 12 9 -15 23 28 24 23 27 -1 -0 20 6 -3 -20 -20 0 -18 -20 -20 -12 -20 -20 -20 -19 -14
-3 -17 -6 23 20 5 13 -4 -5 -17 -3 -2 -20 -20 -15 -5 -3 -14 -7 32 28 27 11 26 10 -1 6 -11 -20 -5 7 1 9 -0 -2 2 2 -11
23 9 10 21 35 29 24 21 17 10 -17 2 14 14 16 18 -12 -2 2 0 32 35 33 25 19 5 15 6 -9 11 12 16 17 16 10 -1 -14 -20
-17 6 15 17 21 24 24 14 19 15 16 31 30 -2 -7 -4 -19 -10 9 16 30 30 30 22 5 20 17 3 -1 14 19 20 26 25 24 12 12 -8
-20 -9 -13 7 10 6 21 5 -12 -19 -10 7 -11 -8 -9 6 15 3 18 25 28 38 36 33 24 28 38 22 -6 -7 21 24 15 11 4 14 16 16
-20 -20 -20 -20 -20 -20 -20 -7 5 -4 9 -12 -19 -3 -20 -20 -6 13 17 27 31 38 34 33 36 38 38 24 26 8 24 11 -5 6 23 16 11 11
-12 -20 -20 -20 -20 -17 -15 -11 -10 18 20 11 -1 -17 -16 2 -6 8 25 27 34 36 29 33 36 39 35 32 26 24 18 12 16 25 24 31 28 19
-20 -9 -1 4 2 4 8 10 11 4 -1 -4 1 -6 6 17 30 25 29 39 35 28 30 37 38 39 37 32 14 24 28 28 19 24 32 33 30 27
-16 -1 -3 -8 0 11 18 20 20 20 15 14 18 20 26 30 31 29 29 27 35 35 35 35 34 34 35 36 35 37 33 31 29 24 28 32 31 32
6 3 12 12 6 -2 18 25 24 22 25 24 27 34 39 34 30 33 34 34 33 30 33 36 35 35 35 34 31 27 23 25 25 24 21 18 15 17
3 13 13 14 16 11 10 21 26 29 30 30 33 34 37 35 36 33 29 32 36 37 32 34 34 33 31 30 20 18 17 23 21 22 8 6 7 5
-20 -11 -1 16 16 18 17 15 24 25 31 33 30 34 33 34 33 33 34 33 33 32 31 20 30 28 29 25 16 14 13 10 5 4 -3 -11 -5 -20
Wind_Speed
9 8 8 7 6 7 7 5 5 4 5 5 5 9 9 8 12 11 12 18 21 21 20 20 20 20 19 18 18 19 20 19 19 18 18 17 16 16
10 11 11 9 7 7 8 7 5 8 8 8 8 6 10 9 11 12 13 17 23 22 22 20 20 21 20 19 19 19 19 21 21 21 20 19 19 19
13 13 15 14 11 9 7 8 8 7 10 6 6 6 6 9 7 10 10 11 9 22 22 21 21 21 21 20 20 20 20 20 21 22 22 22 22 21
16 14 16 11 14 14 10 11 10 9 9 14 5 6 9 9 11 11 10 9 10 15 23 22 22 22 22 21 21 21 21 21 22 21 22 23 24 23
17 16 18 14 15 12 14 13 11 10 9 10 11 4 6 3 3 5 7 9 8 15 19 23 24 24 24 24 24 24 24 24 24 23 22 22 22 22
17 17 17 16 18 15 14 15 13 12 12 11 11 6 5 4 4 6 6 7 10 9 14 14 20 24 25 25 26 26 27 26 25 25 24 23 22 23
17 17 18 19 21 19 12 15 14 13 11 12 12 10 8 4 9 6 10 7 10 9 8 8 10 10 12 22 21 27 26 26 27 26 25 25 25 25
17 18 17 18 20 20 22 22 16 15 15 12 12 13 17 12 10 11 9 5 7 9 10 13 9 11 10 11 21 26 26 28 27 27 26 27 27 26
18 17 16 14 17 19 22 22 21 19 22 16 17 16 16 15 12 10 12 11 13 5 10 11 9 13 10 11 21 24 26 26 27 27 27 26 26 26
18 19 19 18 17 17 19 17 19 21 19 15 19 20 18 16 14 18 17 17 11 2 9 9 5 9 8 10 19 24 26 26 26 26 26 26 26 26
17 17 18 19 20 19 17 17 18 17 19 24 26 25 24 18 16 10 11 10 10 9 10 7 6 4 5 8 9 22 25 25 25 26 25 24 23 22
15 17 18 21 21 21 18 18 18 18 17 17 12 20 22 21 17 17 14 14 14 1 9 10 6 5 3 4 7 9 10 21 24 21 20 20 19 8
11 12 13 17 23 22 21 17 18 16 18 17 17 16 16 18 17 16 21 17 15 15 9 10 7 5 4 3 3 5 6 4 8 9 19 20 19 16
11 9 9 13 17 20 19 24 22 15 14 14 13 12 14 14 16 18 22 22 18 20 11 16 6 9 7 3 5 2 3 4 5 4 5 7 14 17
7 10 15 15 15 12 17 19 12 9 11 14 14 14 15 14 17 18 20 22 21 17 12 18 11 8 8 8 5 5 4 4 4 4 4 5 5 5
8 9 8 11 9 9 7 9 9 10 12 14 14 14 13 13 14 15 15 14 13 11 7 11 12 8 4 5 6 4 4 5 3 4 5 1 1 2
9 6 7 7 9 9 10 10 10 10 12 13 15 14 15 15 14 11 11 9 9 9 6 4 6 6 3 6 2 2 4 2 3 3 3 2 3 5
7 7 7 8 8 8 9 9 10 12 13 13 14 14 15 14 12 9 9 8 9 7 6 4 5 3 2 3 3 3 2 2 2 1 2 4 5 3
11 10 9 9 9 9 9 9 8 8 10 8 8 10 9 8 7 6 6 3 3 4 4 3 6 4 4 3 2 9 4 2 2 1 3 3 2 2
11 10 10 10 10 10 10 9 9 9 8 7 7 7 6 3 3 4 4 3 4 3 3 4 4 4 4 3 3 3 9 4 2 2 3 2 3 7
10 10 10 10 9 9 8 8 9 9 9 8 8 7 6 5 7 7 7 8 8 7 8 6 4 8 6 5 4 3 4 11 6 3 2 2 2 2
9 9 9 9 10 10 9 9 8 8 8 6 5 5 6 6 6 5 5 6 5 7 7 5 5 6 5 5 8 7 5 5 8 10 9 6 1 3
10 9 9 9 9 9 9 8 8 8 7 7 6 6 6 5 5 6 6 7 6 7 8 8 8 9 10 10 11 8 10 5 2 6 7 8 10 6
Wind_Direction
215 215 218 223 218 216 211 177 174 214 235 239 229 213 216 205 212 203 207 209 210 212 216 216 219 223 227 229 233 238 244 247 248 245 244 246 245 246
216 217 222 228 224 225 223 213 201 224 254 200 223 210 208 210 215 204 210 207 210 210 214 215 217 222 224 225 227 231 239 243 245 248 247 245 246 245
218 224 223 228 234 227 222 223 223 215 240 248 228 210 198 209 207 211 212 211 215 215 214 213 215 219 222 224 224 227 230 238 241 244 246 246 246 248
223 220 232 221 229 235 230 228 226 220 228 248 210 213 207 209 215 206 213 215 216 215 217 215 217 218 220 222 222 223 225 229 235 237 239 243 245 246
223 223 231 225 231 226 228 235 234 235 229 238 248 198 206 181 183 225 205 218 215 221 214 217 219 220 221 222 223 225 227 228 229 231 233 235 239 244
226 225 230 226 230 226 226 227 230 231 231 235 238 217 201 199 196 202 223 211 225 218 223 216 220 225 225 223 226 225 226 228 229 230 231 232 232 235
227 227 231 229 229 229 227 229 228 230 230 230 237 231 213 184 206 193 223 212 229 217 221 218 221 222 228 232 233 230 228 228 230 230 229 232 232 233
231 232 234 230 231 226 224 233 221 220 228 228 230 230 236 226 223 209 207 185 247 187 210 238 201 223 220 221 223 225 223 226 228 230 230 231 233 233
230 233 236 235 231 233 230 235 235 230 224 226 232 227 231 227 223 221 209 211 227 193 195 242 183 230 218 225 222 219 221 223 226 228 230 231 233 235
232 235 236 238 236 231 237 231 232 234 234 233 232 236 238 237 211 208 219 229 246 196 179 230 173 228 208 220 215 216 220 222 224 226 229 230 231 233
238 234 233 236 235 227 233 235 240 239 234 231 238 239 243 239 222 213 214 210 230 227 194 216 201 222 200 226 218 212 218 221 224 227 229 230 232 236
244 244 227 233 233 227 224 233 239 241 243 245 232 239 242 243 229 216 217 217 228 252 201 199 207 151 281 207 207 214 217 224 224 226 228 231 230 219
244 245 243 227 236 238 222 233 237 239 242 244 246 240 230 232 233 223 223 224 218 228 181 183 192 167 197 227 234 195 187 187 213 224 227 230 229 211
278 254 250 241 236 238 249 246 247 240 241 249 251 243 237 231 229 224 221 225 227 225 202 194 194 183 186 170 224 193 197 200 175 197 189 201 214 215
285 281 297 301 291 271 247 248 250 252 256 260 253 246 244 241 232 231 227 223 227 223 218 198 197 185 189 202 182 187 145 211 187 189 182 192 194 184
312 301 282 270 272 269 281 273 265 259 258 260 259 257 254 243 237 230 223 213 212 209 199 193 198 175 177 202 181 183 172 181 174 206 210 204 221 202
308 315 332 322 309 291 278 269 263 259 258 258 260 259 261 254 242 215 210 200 206 203 190 175 176 180 161 141 114 150 155 197 197 172 142 207 211 232
20 9 359 354 347 336 330 320 301 274 262 258 260 257 255 245 214 201 193 184 189 191 183 148 124 85 58 31 128 132 82 118 108 207 240 261 279 230
21 5 358 351 341 338 335 331 323 316 304 274 269 270 251 220 180 173 164 178 114 139 115 144 122 140 160 159 1 55 109 121 136 214 224 212 262 353
13 360 352 347 344 340 339 337 334 336 346 355 358 355 3 37 95 106 88 95 118 91 85 84 97 119 117 119 104 54 49 92 65 53 36 17 35 34
3 355 349 343 341 340 339 338 337 342 346 2 5 1 14 26 45 66 70 65 77 78 89 83 76 99 111 109 96 93 46 46 76 90 71 66 54 62
357 353 346 340 341 343 341 344 345 353 349 348 353 7 19 31 48 56 69 74 73 85 88 81 61 68 65 83 84 85 73 47 41 58 63 67 60 60
355 350 344 341 340 343 342 349 347 352 353 356 0 10 20 42 41 56 66 76 90 93 98 89 77 77 75 82 87 86 84 71 32 76 64 66 74 81